Hourly Data Report for November 03, 2004

TORONTO CITY
ONTARIO

43°40'00.000" N
79°24'00.000" W
112.50 m
6158355
71508
XTO

Download Data

Hourly Data (November 2004)
Hourly Data Report for November 3, 2004
TIME
LST
Temp Definition
°C
Dew Point Definition
°C
Rel Hum Definition
%
Precip. Amount Definition
mm

Wind Dir Definition
10's deg

Wind Spd Definition
km/h
Visibility Definition
km
Stn Press Definition
kPa
Hmdx Definition


Wind Chill Definition


Weather Definition


00:00 6.7 3.0 77   LegendMM LegendMM LegendMM 100.37     LegendNANA
01:00 6.0 2.7 79   LegendMM LegendMM LegendMM 100.47     LegendNANA
02:00 5.9 1.9 75   LegendMM LegendMM LegendMM 100.55     LegendNANA
03:00 6.1 1.8 74   LegendMM LegendMM LegendMM 100.64     LegendNANA
04:00 5.5 1.7 76   LegendMM LegendMM LegendMM 100.74     LegendNANA
05:00 4.8 0.8 75   LegendMM LegendMM LegendMM 100.85     LegendNANA
06:00 4.2 0.3 76   LegendMM LegendMM LegendMM 100.95     LegendNANA
07:00 3.9 0.1 76   LegendMM LegendMM LegendMM 101.04     LegendNANA
08:00 3.6 -0.1 77   LegendMM LegendMM LegendMM 101.12     LegendNANA
09:00 4.5 0.1 73   LegendMM LegendMM LegendMM 101.16     LegendNANA
10:00 5.6 0.4 69   LegendMM LegendMM LegendMM 101.18     LegendNANA
11:00 6.8 0.3 63   LegendMM LegendMM LegendMM 101.21     LegendNANA
12:00 7.7 0.3 59   LegendMM LegendMM LegendMM 101.20     LegendNANA
13:00 9.6 -0.2 50   LegendMM LegendMM LegendMM 101.13     LegendNANA
14:00 8.5 1.9 63   LegendMM LegendMM LegendMM 101.10     LegendNANA
15:00 7.2 2.5 72   LegendMM LegendMM LegendMM 101.09     LegendNANA
16:00 6.7 2.8 76   LegendMM LegendMM LegendMM 101.06     LegendNANA
17:00 6.5 3.1 79   LegendMM LegendMM LegendMM 101.06     LegendNANA
18:00 5.7 2.7 81   LegendMM LegendMM LegendMM 101.06     LegendNANA
19:00 5.9 3.5 85   LegendMM LegendMM LegendMM 101.08     LegendNANA
20:00 6.0 3.3 83   LegendMM LegendMM LegendMM 101.04     LegendNANA
21:00 6.3 3.1 80   LegendMM LegendMM LegendMM 100.98     LegendNANA
22:00 6.5 2.8 77   LegendMM LegendMM LegendMM 100.94     LegendNANA
23:00 5.9 2.5 79   LegendMM LegendMM LegendMM 100.88     LegendNANA

Notes on Data Quality.

Legend

  • E = Estimated
  • M = Missing
  • NA = Not Available*
  • [empty] = Indicates an unobserved value
Date modified: